Theta_e
287 288 290 291 293 294 294 296 298 300 303 304 305 306 307 308 309 310 311 313 314 315 316 317 318 318 319 320 320 321 322 322 321 320 319 319 318 319 321 323 325 323
285 287 289 290 292 294 295 295 296 298 301 303 304 305 306 307 308 309 310 311 312 313 314 316 316 316 317 319 319 318 319 320 320 320 319 320 320 321 321 322 323 323
283 285 287 289 290 292 294 295 295 296 298 301 302 303 305 306 307 308 308 309 310 311 312 313 315 315 315 316 317 317 317 317 318 319 319 319 319 320 319 318 319 319
280 282 284 287 289 291 292 294 294 295 296 298 300 302 303 304 305 306 307 308 309 309 310 311 312 313 314 314 315 316 316 315 317 317 317 317 316 317 316 315 314 314
278 280 282 285 288 290 291 292 293 294 294 296 298 300 301 302 303 305 305 306 307 308 309 310 311 311 312 312 313 314 314 315 315 316 315 315 314 314 314 313 312 311
277 279 282 284 286 288 290 291 292 293 293 294 296 298 300 301 302 303 304 305 306 307 308 308 309 310 310 311 311 312 312 313 313 313 313 313 312 312 312 311 311 310
276 278 280 283 285 287 288 289 291 292 292 293 294 296 298 299 301 302 303 304 304 305 306 307 308 308 309 310 310 310 311 311 311 311 311 311 311 311 310 310 310 309
275 277 279 281 284 285 287 288 290 291 291 292 293 294 296 297 299 300 301 302 303 304 305 306 306 307 308 309 309 310 310 310 310 310 310 310 309 310 309 309 309 308
274 276 278 280 282 283 285 286 288 289 291 292 292 293 294 296 297 299 300 301 302 303 304 305 306 306 307 308 308 309 309 309 309 309 309 309 308 308 308 308 308 307
274 276 278 279 280 281 283 285 287 288 289 291 292 292 293 295 296 297 298 300 301 302 303 304 304 305 306 307 307 308 308 308 308 307 308 308 307 308 307 307 307 306
273 275 276 278 278 280 282 284 285 287 288 290 291 291 292 294 295 296 297 298 300 301 302 302 303 304 305 306 306 306 306 307 307 307 306 306 306 306 306 306 305 305
271 273 274 275 277 279 281 282 284 285 287 289 290 291 291 293 294 295 296 297 298 299 300 301 302 303 303 304 305 305 305 305 305 305 305 305 305 305 304 304 304 304
270 272 273 273 275 277 279 281 283 284 286 288 289 290 291 292 293 294 295 296 297 298 299 300 301 301 302 303 304 304 304 304 304 304 304 303 303 303 302 302 302 302
268 270 272 273 274 275 277 279 282 284 285 287 288 289 290 291 292 293 294 295 296 297 298 299 299 300 301 301 302 302 302 302 302 302 302 301 301 300 300 300 300 299
266 268 271 273 274 275 276 278 280 282 284 286 287 288 289 290 291 292 293 294 295 296 296 297 298 299 299 300 301 301 301 301 300 300 300 299 298 297 297 297 297 297
264 266 268 271 273 274 275 276 278 281 283 284 286 287 288 289 290 291 292 293 294 294 295 296 297 297 298 298 299 299 299 299 299 298 298 298 297 295 294 294 294 295
263 264 266 269 271 272 274 275 277 279 281 283 285 286 287 288 289 290 291 292 293 293 294 295 295 296 297 297 297 297 297 297 297 296 295 295 295 294 293 292 292 292
262 263 264 267 269 271 273 274 275 278 279 281 283 285 286 287 288 289 290 291 292 292 293 294 294 295 295 295 295 295 295 295 295 294 293 292 292 292 292 291 290 290
261 261 262 264 267 269 271 273 274 276 277 279 282 284 285 286 287 288 289 290 291 291 292 292 293 293 293 294 294 293 293 293 292 292 291 290 290 290 289 289 289 288
260 261 262 263 265 267 269 271 273 275 276 278 280 283 284 285 287 287 288 289 290 290 291 291 292 292 292 292 292 292 292 291 290 290 289 288 287 287 287 287 287 287
259 260 261 263 264 266 267 269 272 274 275 276 278 281 283 284 286 287 288 289 289 289 290 291 291 291 291 291 291 291 290 290 289 288 287 286 285 284 285 285 284 285
258 259 261 262 263 264 265 267 270 272 274 276 277 279 283 284 285 286 287 288 288 289 289 290 289 289 290 290 290 289 289 288 287 286 285 284 283 283 283 283 283 284
258 258 259 260 261 262 264 266 268 270 273 275 275 277 281 283 284 285 286 287 288 288 288 289 288 288 289 289 288 288 288 287 286 285 284 283 282 282 282 282 283 283
257 257 258 259 260 262 263 265 266 268 271 274 274 276 279 282 284 284 285 286 287 287 287 287 287 287 287 288 287 287 287 287 285 284 282 281 281 281 281 281 281 282
257 257 258 259 260 262 263 264 265 267 270 272 274 275 278 281 283 283 284 285 286 286 286 286 286 286 286 287 287 287 287 286 285 283 281 280 280 280 280 280 280 280
256 257 258 259 261 262 263 264 265 267 268 271 273 275 277 280 282 282 283 284 284 285 285 285 285 284 285 285 285 285 285 285 284 282 281 280 280 280 281 281 281 281
Wind_Speed
34 33 32 31 29 28 27 27 27 26 24 23 22 22 22 20 19 19 19 18 17 16 16 17 18 18 19 21 21 21 25 26 23 20 20 21 20 20 22 24 25 24
36 34 33 32 31 30 29 27 27 27 25 24 23 22 21 20 19 19 19 18 17 17 16 16 17 18 18 19 19 19 21 23 23 22 22 23 23 23 25 27 28 26
36 35 34 33 33 32 30 28 27 27 27 24 23 23 22 21 20 19 19 19 18 17 17 17 17 17 17 17 17 18 19 20 21 22 21 22 22 23 23 23 24 25
36 35 34 33 32 32 31 30 29 28 28 27 25 24 23 22 21 20 19 19 19 18 17 17 16 16 16 16 16 17 18 18 19 19 20 20 21 22 22 20 19 20
35 34 34 33 33 32 31 31 31 30 30 29 27 26 24 23 23 22 20 19 18 17 17 16 16 15 15 15 15 16 18 18 18 18 19 20 19 20 19 19 18 16
35 35 35 34 33 32 31 32 32 31 31 30 29 28 26 24 23 22 21 19 18 17 16 15 14 14 14 14 13 15 16 17 18 18 20 20 19 19 18 18 18 16
36 36 36 36 34 33 32 32 32 31 31 30 29 29 28 26 24 23 21 19 18 17 16 15 14 13 13 13 13 14 15 16 17 18 19 20 19 18 18 17 17 17
36 36 36 37 36 35 35 33 33 32 31 30 30 30 29 27 25 24 22 20 18 16 15 14 14 13 13 13 14 15 15 15 17 18 19 19 19 18 18 17 17 17
37 38 38 38 37 37 36 35 34 33 32 31 30 30 29 27 26 25 23 21 19 17 16 15 14 14 14 14 14 15 16 17 18 19 20 20 20 19 19 19 18 18
39 40 39 39 39 38 37 36 34 33 33 31 30 30 30 28 27 25 23 22 20 18 17 16 15 14 14 15 16 17 18 18 18 18 19 19 19 19 20 20 20 20
40 40 39 40 39 38 37 36 34 33 33 31 29 30 30 29 27 25 24 22 20 19 18 17 16 15 15 15 16 16 17 18 18 18 18 18 18 19 20 21 21 21
41 41 40 40 39 38 37 36 34 33 32 31 29 29 29 29 27 25 24 23 21 19 18 18 16 15 15 15 16 16 17 17 18 18 18 18 18 19 20 21 21 21
42 41 40 40 38 36 35 34 33 32 32 30 28 27 27 28 27 25 23 23 21 19 18 18 17 16 15 16 16 17 17 17 18 18 18 18 18 19 20 20 20 21
41 40 39 39 38 37 34 32 32 31 30 30 28 27 26 26 26 25 24 23 21 19 18 17 17 16 16 16 16 17 18 18 18 18 18 18 19 19 20 20 20 20
39 39 39 38 37 37 35 33 32 30 28 28 27 26 25 24 24 24 23 23 21 19 18 17 16 15 15 16 17 18 18 19 19 19 20 20 21 20 20 20 20 20
38 38 40 38 36 37 36 34 33 30 28 27 27 26 25 24 24 23 22 21 20 18 16 15 14 15 15 15 17 18 19 19 20 20 21 22 23 23 21 20 20 20
35 38 42 39 36 36 35 34 33 30 28 27 27 26 24 23 22 22 21 20 19 17 15 14 14 14 14 15 16 18 19 20 20 21 22 22 23 24 23 22 21 20
34 40 43 41 38 36 35 34 32 29 27 26 27 26 24 22 20 20 20 19 18 16 14 14 13 13 13 14 16 17 18 19 21 22 22 22 23 24 24 24 23 22
35 42 44 42 39 36 35 34 31 29 27 26 26 25 23 22 20 18 18 17 17 15 14 13 11 11 11 13 15 17 18 20 21 22 21 21 21 22 23 24 24 25
35 43 45 43 40 37 35 34 31 30 28 25 25 25 23 22 20 17 16 15 15 14 13 11 10 10 11 13 15 17 19 20 20 21 20 20 19 20 22 23 24 26
34 43 44 42 40 38 36 35 32 30 28 26 25 24 23 21 19 17 14 13 12 12 12 10 9 10 12 14 16 18 19 20 20 20 19 19 18 18 20 21 23 25
36 42 43 40 40 39 38 36 33 31 29 27 26 25 23 20 17 15 13 11 10 10 11 10 9 11 13 15 17 19 20 20 21 20 19 18 17 17 18 19 21 23
38 40 39 39 39 39 38 36 34 32 29 27 26 25 23 20 17 14 12 10 9 10 11 11 11 12 15 17 18 19 21 21 21 21 20 19 17 16 17 18 19 21
39 37 37 38 38 37 37 36 34 33 31 28 27 26 23 21 17 14 12 11 11 12 12 13 14 14 16 17 18 20 21 22 22 22 22 21 19 17 16 16 18 19
38 38 37 37 36 36 36 35 34 33 31 29 27 25 24 21 17 14 13 13 13 14 14 15 15 15 15 17 19 21 22 23 24 24 24 23 21 20 19 17 17 17
38 38 37 36 36 36 35 34 33 32 32 31 27 24 22 21 17 14 14 14 14 15 16 16 16 15 15 18 20 22 22 23 26 27 27 25 23 22 22 21 19 18
Wind_Direction
15 14 12 11 9 6 3 1 360 357 355 354 351 347 343 339 334 331 330 326 320 317 316 307 295 285 269 255 246 236 226 219 220 230 232 227 219 215 215 208 204 208
13 12 12 11 9 7 6 4 1 358 356 354 352 349 344 340 336 333 332 330 327 322 319 314 301 291 277 262 255 244 227 219 221 223 223 224 221 216 210 203 200 203
10 10 10 9 7 6 5 5 3 0 358 355 353 351 349 345 341 338 336 333 331 327 322 316 305 294 284 270 260 251 237 225 219 216 214 214 213 209 205 201 198 198
6 6 7 7 7 6 5 4 3 2 360 356 354 352 350 349 346 341 339 335 331 328 322 314 305 295 286 275 263 249 237 227 219 213 208 204 203 201 198 195 193 189
2 3 5 6 7 7 5 4 2 360 359 357 354 353 350 350 348 344 339 335 330 326 321 312 301 291 281 270 258 245 234 226 221 214 204 197 195 195 193 190 187 182
1 2 5 6 6 7 6 4 1 359 358 356 354 353 351 348 347 345 340 334 329 322 315 308 298 287 276 264 250 241 232 221 213 207 199 192 188 186 186 187 185 181
359 0 3 5 6 7 5 3 1 359 357 355 354 352 350 348 345 344 339 333 327 319 310 303 294 284 272 261 248 237 228 217 207 198 191 186 181 179 180 184 185 181
356 358 2 4 5 5 3 2 1 359 356 354 353 351 349 347 344 341 338 331 325 317 307 297 290 280 266 254 244 233 223 213 204 196 189 184 181 179 179 182 185 183
356 359 0 2 3 2 0 359 358 358 355 352 351 349 347 346 344 341 336 330 324 316 306 295 285 274 261 248 238 230 220 211 204 199 193 187 184 183 182 183 185 183
358 360 0 0 359 357 357 357 356 356 354 351 350 348 345 344 343 341 337 330 323 316 306 295 283 271 258 246 236 229 221 211 203 198 194 191 188 188 187 188 187 184
357 359 0 359 356 353 353 354 353 353 352 350 349 348 344 341 340 340 337 331 322 314 304 294 284 270 257 246 234 227 219 211 203 196 193 191 190 190 189 189 189 186
354 356 357 356 353 351 350 350 350 350 349 348 348 346 342 338 337 336 335 329 321 312 302 292 283 270 257 245 234 223 215 208 203 198 194 192 189 189 188 187 186 185
351 352 352 352 351 349 348 347 347 347 347 346 345 343 340 337 334 332 330 326 319 311 301 291 283 271 256 244 233 223 214 207 202 197 192 189 187 186 186 185 182 182
349 349 348 347 346 346 346 345 345 345 344 343 341 339 338 335 333 329 326 323 317 309 301 291 280 268 255 243 231 222 214 206 199 194 188 183 180 179 180 180 179 178
349 347 345 344 342 343 343 343 343 343 343 341 337 335 334 332 331 327 323 320 315 308 298 287 276 263 251 239 229 220 211 204 196 192 187 180 173 169 171 173 172 171
348 344 343 342 340 341 340 339 340 342 342 340 334 331 329 329 328 324 321 316 310 304 293 281 271 258 246 235 225 217 209 202 193 186 183 179 171 165 162 163 164 165
344 342 342 341 339 339 337 336 337 339 340 336 331 328 324 323 324 321 317 312 304 297 288 276 266 255 244 232 222 215 207 199 189 181 176 174 171 166 161 158 157 157
339 340 341 339 338 337 335 334 333 336 338 332 327 327 322 319 319 316 312 307 299 292 283 274 265 254 241 228 217 209 202 193 183 177 172 168 166 164 161 158 155 152
335 338 339 337 336 335 333 331 329 331 335 329 323 322 318 313 312 310 307 301 294 286 277 269 260 246 234 223 212 202 195 188 179 173 168 163 162 161 159 158 156 153
332 335 335 334 334 333 331 329 326 326 328 326 322 318 312 308 305 303 301 295 286 277 267 258 246 233 223 212 203 197 191 185 176 169 163 158 156 156 155 155 156 155
329 331 332 331 331 331 329 327 324 321 322 323 321 314 306 302 298 295 293 286 277 264 252 241 230 221 212 203 197 191 186 179 171 163 158 153 150 150 151 152 154 154
326 328 329 329 329 328 326 324 322 318 316 318 319 312 302 294 290 284 278 269 258 245 232 220 208 204 202 198 193 187 180 173 164 156 150 146 144 145 147 149 150 149
324 326 326 326 325 324 322 321 319 315 311 312 314 311 300 288 279 270 260 245 229 220 211 197 185 188 195 194 189 185 178 168 159 151 144 137 135 138 143 145 147 146
322 323 322 321 319 319 318 317 314 310 308 307 308 307 297 282 268 255 241 223 208 200 195 186 177 180 192 192 187 185 180 169 160 151 140 133 129 129 133 138 143 144
319 320 319 317 315 314 314 313 309 307 305 303 302 302 293 276 258 242 228 212 198 190 184 180 175 178 190 192 187 185 182 174 166 154 141 133 128 125 122 124 131 134
317 318 317 315 313 312 311 309 305 302 302 299 298 298 287 266 244 226 216 203 192 185 179 176 173 174 182 186 184 183 181 175 167 157 147 139 133 128 123 120 120 121